Retour au catalogue

FENGYUN 1C DEB

ActifPO
NORAD 37717·DEBRIS·🇨🇳 China

Lancé May 10, 1999 depuis Taiyuan Satellite Launch Center

Loading…

Prochains Passages (prochaines 24 heures)

TLE

FraisSource: Space-Track

Époque: Sep 13, 2026, 05:41 UTC

1 37717U 99025EMJ 26256.23684294  .00028381  00000-0  15434-2 0  9990
2 37717  98.7478 252.7472 0034477 281.6415 141.8328 15.13925908935255

Suivez FENGYUN 1C DEB en temps réel avec AllMySat

Download on the App Store